Location: Batang Balui
(2.7000°N, 113.7833°E)
Time: 20:01:16
(UTC+00:00)

Envisat - Pass Details

Date: 08 December 2022
Orbit: 763 x 765 km, 98.2° (Epoch: 29 January)

Event Time Altitude Azimuth Distance (km) Brightness Sun altitude
Exits shadow 19:55:19 41° 124° (ESE) 1,104 4.1 -33.5°
Drops below altitude 10° 19:59:24 10° 173° (S) 2,296 5.8 -32.6°
Sets 20:01:48 0° 179° (S) 3,224 6.5 -32.0°
